Flag for Germany Weather past 2 weeks in Sankt Ingbert, Saarland, Germany

Now
67 °F

Scattered clouds.


Feels Like: 67 °F
Forecast: 51 / 59 °F
Wind: 6 mph from West

Location: Saarbruecken / Ensheim

Current Time: Aug 30, 2014 at 12:22:05 PM

Latest Report: Aug 30, 2014 at 12:00 PM


Visibility: 31 mi

Pressure: 30.11 "Hg

Humidity: 67%

Dew point: 55 °F

Location of Sankt IngbertLocation

Historic Weather in Sankt Ingbert — Graph

°F

Sankt Ingbert temperature yesterday

Maximum temperature yesterday: 74 °F (at 5:00 PM)
Minimum temperature yesterday: 57 °F (at 7:00 AM)
Average temperature yesterday: 64 °F

Past Weeks' High & Low Weather Summary

 TemperatureHumidityPressure
High74 °F (Aug 29, 5:00 PM)100% (Aug 24, 7:00 AM)30.16 "Hg (Aug 24, 7:00 AM)
Low41 °F (Aug 24, 6:00 AM)44% (Aug 19, 4:00 PM)29.66 "Hg (Aug 26, 6:00 AM)
Average57 °F81%29.99 "Hg
* Reported Aug 15 11:00 AM — Aug 30 11:00 AM, Sankt Ingbert, Weather by CustomWeather, © 2014

Note: Actual official high and low records may vary slightly from our data, if they occured in-between our weather recording intervals... More about our weather records

Advertising

Sankt Ingbert weather history for previous 24 hours

 ConditionsComfort  
Time TempWeatherWind HumidityBarometerVisibility
11:00 AM
Aug 30
65 °FScattered clouds.3 mph71%30.11 "Hg19 mi
10:00 AM63 °FPartly sunny.3 mph79%30.11 "Hg16 mi
9:00 AM60 °FPartly sunny.1 mph90%30.11 "Hg9 mi
8:00 AM56 °FFog.1 mph99%30.11 "Hg5 mi
7:00 AM53 °FFog.No wind99%30.11 "Hg5 mi
6:00 AM53 °FPassing clouds.2 mph99%30.11 "Hg9 mi
5:00 AM53 °FPassing clouds.1 mph98%30.11 "Hg12 mi
4:00 AM54 °FClear.1 mph98%30.11 "Hg19 mi
3:00 AM53 °FClear.1 mph97%30.11 "Hg19 mi
2:00 AM55 °FPassing clouds.1 mph94%30.10 "Hg22 mi
1:00 AM58 °FPassing clouds.1 mph86%30.09 "Hg25 mi
12:00 AM61 °FOvercast.3 mph83%30.08 "Hg25 mi
9:00 PM
Aug 29
63 °FOvercast.2 mph83%30.03 "Hg31 mi
8:00 PM67 °FOvercast.2 mph73%30.01 "Hg37 mi
7:00 PM70 °FOvercast.5 mph64%30.00 "Hg37 mi
6:00 PM71 °FOvercast.5 mph62%30.00 "Hg43 mi
5:00 PM74 °FOvercast.5 mph56%29.99 "Hg40 mi
4:00 PM70 °FOvercast.3 mph60%30.01 "Hg43 mi
3:00 PM71 °FPartly sunny.5 mph62%30.02 "Hg43 mi
2:00 PM69 °FScattered clouds.3 mph68%30.03 "Hg43 mi
1:00 PM69 °FPassing clouds.2 mph64%30.03 "Hg43 mi
12:00 PM68 °FPassing clouds.3 mph70%30.04 "Hg37 mi
Weather by CustomWeather, © 2014

See weather overviewHow to use our weather pages